www.pogodaiklimat.ru

Погода и климат >> Архив погоды >> Россия >> Магаданская область >> Усть-Омчуг


ПОГОДА в Усть-Омчуге

  • Прогноз погоды в Усть-Омчуге
  • Монитор погоды в Усть-Омчуге

АРХИВ ПОГОДЫ в Усть-Омчуге

Время (UTC), дата Ветер
(напр.,м/с)
 
Видим.   Явления Облачность Т
(С)
Тd
(С)
f
(%)
Тe
(С)
Тes
(С)
Комфортность P
(гПа)
Po
(гПа)
Тmin
(С)
Tmax
(С)
R
(мм)
R24
(мм)
S
(см)
03 12.09 З 2 50 км 9/0
[Ac trans Ci fib]
+13.4 -6.1 25 +13 +17 1010.0 943.6
06 12.09 Ю 2 50 км 9/4 1000 м
[Cb calv Ac trans Ci fib]
+14.9 -7.6 20 +15 +16 1008.5 942.5
09 12.09 ЮЗ 2 50 км 9/3 1000 м
[Sc Ac trans Ci fib]
+7.7 -5.1 40 +6 +6 1010.1 942.4 +15.1
12 12.09 З 1 50 км 9/1 1000 м
[Sc Ac trans Ci fib]
+3.6 -3.3 61 +3 +3 1012.1 943.3
15 12.09 штиль 0 50 км 8/3 1000 м
[Sc Ac trans Ci fib]
+1.7 -2.1 76 +1 +1 1012.9 943.6
18 12.09 ЮЗ 2 50 км 9/4 1000 м
[Sc Ac trans Ci fib]
+2.6 -0.2 82 -1 -1 1012.5 943.5
21 12.09 штиль 0 50 км 6/1 1000 м
[Sc Ac trans]
+2.2 +0.7 90 +1 +1 1013.8 944.6 -1.9
00 13.09 ЮЗ 1 50 км 4/0
[Ci fib]
+11.4 +1.0 49 +12 +16 1011.0 944.2
03 13.09 ЮЗ 1 50 км 9/3 1000 м
[Cu hum Ac trans Ci fib]
+16.0 -2.0 29 +17 +20 1008.3 942.6
06 13.09 ЮЗ 4 50 км 9/3 1000 м
[Cu hum Ci fib]
+16.7 -1.9 28 +16 +17 1007.2 941.7
09 13.09 Ю 3 50 км 9/4 1000 м
[Sc Ac trans Ci fib]
+13.0 +0.1 41 +12 +12 1009.0 942.6 +17.4
12 13.09 Ю 2 50 км 9/5 1000 м
[Sc Ac und]
+11.3 +1.0 49 +11 +11 1008.2 941.5
15 13.09 З 1 20 км слаб. ливневой дождь 9/8 1000 м
[Cb cap Ac und]
+10.1 +4.3 67 +10 +10 1008.6 941.6
18 13.09 Ю 1 50 км {ливн. осадки} 9/5 1000 м
[Cb calv Ac und]
+9.1 +4.2 71 +9 +9 1007.8 940.7
21 13.09 ЮЗ 2 50 км 9/4 1000 м
[Sc Ac und]
+9.5 +3.7 67 +8 +8 1007.4 940.4 +9.0 0.0
00 14.09 ЮЗ 3 50 км 10/4 1000 м
[Cb calv Ac As]
+11.9 +2.6 53 +11 +11 1006.3 939.8
03 14.09 Ю 4-10
{10}
20 км слаб. ливневой дождь 9/8 1000 м
[Cb cap Ac und]
+11.7 +1.1 48 +10 +10 1006.3 939.8
06 14.09 ЮВ 3
{10}
50 км {ливн. осадки} 10/6 1000 м
[Cb calv Ac trans Cs]
+10.5 +2.4 57 +9 +9 1005.8 939.1
09 14.09 В 1 50 км {ливн. осадки} 10/4 1000 м
[Cb calv Ac As]
+8.1 +2.7 69 +8 +8 1006.0 938.8 +12.8 0.3
12 14.09 штиль 0 50 км {ливн. осадки} 10/3 1000 м
[Sc Ac As]
+5.2 +2.6 83 +4 +4 1006.6 938.7
15 14.09 штиль 0 50 км 10/3 1000 м
[Sc Ac und]
+4.7 +2.7 87 +4 +4 1006.1 938.1
18 14.09 СВ 1 50 км 10/1 1000 м
[Sc Ac und]
+3.2 +1.9 91 +2 +2 1005.5 937.2
21 14.09 штиль 0 50 км 10/4 1000 м
[Cb calv Ac und]
+3.7 +2.5 92 +3 +3 1004.5 936.3 +2.8
00 15.09 ЮВ 1 50 км 10/5 1000 м
[Cb calv Ac und]
+7.4 +3.0 74 +7 +7 1002.7 935.5
03 15.09 В 3 50 км 10/3 1000 м
[Sc As op]
+10.3 -13.5 17 +9 +10 1001.3 934.7
06 15.09 В 3 50 км в посл. час ливневой дождь 10/5 1000 м
[Cb calv As op]
+9.1 -6.4 33 +7 +8 1001.9 935.0
09 15.09 СВ 2 20 км слаб. ливневой дождь 10/8 1000 м
[Cb cap Ac As]
+6.5 -0.6 60 +5 +5 1003.5 936.0 +10.5 0.0
12 15.09 СВ 3 50 км {ливн. осадки} 9/8 1020 м
[Cb calv Ac und]
+4.4 +1.2 80 +1 +1 1005.4 937.3
15 15.09 СВ 3 50 км 9/8 1000 м
[Cb calv Ac und]
+5.0 +1.0 75 +2 +2 1005.6 937.6
18 15.09 СВ 2 50 км 9/8 1020 м
[Cb calv Ac und]
+5.4 +0.9 73 +3 +3 1006.9 938.9
21 15.09 ЮЗ 1 50 км 9/6 1000 м
[Sc Ac trans]
+2.8 +0.9 87 +1 +1 1009.4 940.6 +2.7 0.1
00 16.09 В 1 50 км 10/6 600 м
[Sc Ac und]
+7.0 +1.9 70 +6 +7 1010.1 942.3
03 16.09 З 1 50 км 9/4 1000 м
[Cu Sc Ac trans Ci fib]
+11.6 -0.4 43 +12 +14 1009.1 942.4
06 16.09 СЗ 3 50 км 8/4 1000 м
[Cu med, cong Ac trans Ci fib]
+11.9 -0.3 43 +11 +11 1009.8 943.1
09 16.09 ЮВ 2 50 км 4/3 1000 м
[Sc Ac trans]
+4.8 +0.2 72 +2 +2 1013.1 944.6 +13.2
12 16.09 штиль 0 50 км 9/4 1000 м
[Sc Ac und]
+3.9 +0.4 78 +3 +3 1014.9 946.0
15 16.09 штиль 0 50 км 9/3 1000 м
[Sc Ac trans Ci fib]
-0.4 -1.4 93 -2 -2 1016.3 946.3
18 16.09 СВ 1 50 км 9/3 1000 м
[Sc Ac trans Ci fib]
-0.3 -1.0 95 -3 -3 1015.1 945.2
21 16.09 штиль 0 50 км 9/5 1000 м
[Cb calv Ac und]
+1.0 0.0 93 -0 -0 1015.0 945.4 -1.3
00 17.09 ЮВ 1 20 км слаб. ливневой дождь 9/9 100 м
[Cb cap Ac und]
+2.7 +2.0 95 +1 +1 1014.0 944.9
03 17.09 С 3 20 км слаб. ливневой дождь 9/8 200 м
[Cb cap Ac und]
+5.7 +4.3 91 +2 +3 1012.1 943.9
06 17.09 С 2 50 км {ливн. осадки} 9/6 300 м
[Cb calv Ac trans Ci fib]
+7.2 +4.1 81 +5 +5 1010.8 943.0
09 17.09 СВ 1 50 км 9/6 600 м
[Cb calv Ac trans Ci fib]
+5.8 +3.1 83 +5 +5 1011.3 943.2 +7.6 5
12 17.09 штиль 0 50 км 9/5 300 м
[Sc Ac und]
+2.9 +2.1 94 +2 +2 1012.1 943.2
15 17.09 СВ 1 50 км 9/8 180 м
[St Ac und]
+2.9 +2.3 96 +1 +1 1011.6 942.7
18 17.09 СВ 1 20 км 9/9 120 м
[St]
+2.7 +2.0 95 +1 +1 1011.6 942.7
21 17.09 В 1 200 м туман ?/? +2.5 +2.0 96 +1 +1 1012.2 943.2 +1.7
00 18.09 ЮЗ 1 20 км слаб. ливневой дождь {туман} 9/9 200 м
[Cb cap]
+5.2 +3.6 89 +4 +4 1012.3 943.9
03 18.09 Ю 1 20 км слаб. ливневой дождь 9/9 300 м
[Cb cap]
+5.6 +4.2 91 +4 +5 1012.7 944.4
06 18.09 Ю 1 50 км {ливн. осадки} 9/8 840 м
[Cb calv Ac und]
+6.7 +4.0 83 +6 +6 1012.0 944.0
09 18.09 штиль 0 50 км 10/0
[Ac und]
+5.1 +3.2 88 +4 +4 1013.4 944.9 +7.4 2
12 18.09 ЮЗ 1 20 км слаб. ливневой дождь 9/5 1000 м
[Cb cap Ac und]
+3.8 +3.0 95 +2 +2 1014.7 945.8
15 18.09 ЮЗ 1 50 км {ливн. осадки} 9/4 1000 м
[Cb calv Ac und]
+1.9 +1.4 96 0 0 1015.7 946.3
18 18.09 штиль 0 20 км {ливн. осадки} 10/10 120 м
[St]
+1.6 +1.1 96 0 0 1015.8 946.3
21 18.09 ЮЗ 1 200 м туман ?/? +1.9 +1.5 97 -0 -0 1016.4 947.0 +0.8 0.1
00 19.09 Ю 1 20 км в посл. час туман 10/10 90 м
[St]
+4.6 +4.0 96 +3 +3 1015.8 947.1

 

Местоположение метеостанции Усть-Омчуг (Магаданская область, Россия): широта 61.12 долгота 149.60 высота над уровнем моря 575 м.

В архиве по умолчанию представлена погода в Усть-Омчуге за последнюю неделю. Архивные данные за месяц целиком и за предыдущие месяцы, начиная с января 2011 года, Вы можете получить, выбрав интересующий диапазон дат из раскрывающегося списка и нажав кнопку "Ввод!".


*Определитесь, кто Вы:
робот инопланетянин человек

Внимание! Время в таблицах - всемирное. Для получения местного времени необходимо прибавить поправку, которая равна 11 ч.

Смотрите также архив погоды в соседних городах и на ближайших метеорологических станциях:

Погода в Мадауне (Магаданская область, Россия) (83 км)
Погода на Озере Джека Лондона (Магаданская область, Россия) (107 км)
Погода в Усть-Бохапче (Магаданская область, Россия) (121 км)
Погода в Колымской (Магаданская область, Россия) (134 км)
Погода в Палатке (Магаданская область, Россия) (134 км)
Погода в Талой (Магаданская область, Россия) (145 км)
Погода в Ягодной (Магаданская область, Россия) (155 км)
Погода в Талоне (Магаданская область, Россия) (161 км)
Погода в Армани (Магаданская область, Россия) (165 км)
Погода в Магадане (Магаданская область, Россия) (185 км)

Пояснения к столбцам:

Ветер - указаны скорость ветра в м/с - средняя за 10 мин, порывы в срок и между сроками (в фигурных скобках) и направление, откуда дует ветер: С - северный, СВ - северо-восточный, В - восточный, ЮВ - юго-восточный, Ю - южный, ЮЗ - юго-западный, З - западный, СЗ - северо-западный.
Видимость - горизонтальная дальность видимости в метрах или километрах. При видимости от 1 до 10 км при отсутствии осадков обычно наблюдается дымка, при ухудшении видимости до 1 км и менее - туман. В сухую погоду видимость может ухудшаться дымом, пылью или мглою.
Явления - указаны атмосферные явления, наблюдавшиеся в срок или в последний час перед сроком; фигурными скобками обозначены явления, наблюдавшиеся между сроками (за 1-3 часа до срока); квадратными скобками обозначены град или гололедные отложения с указанием их диаметра в мм.
Облачность - указаны через наклонную черту общая и нижняя облачность в баллах и высота нижней границы облаков в метрах; квадратными скобками обозначены формы облаков: Ci - перистые, Cs - перисто-слоистые, Cc - перисто-кучевые, Ac - высококучевые, As - высокослоистые, Sc - слоисто-кучевые, Ns - слоисто-дождевые, Cu - кучевые, Cb - кучево-дождевые. Подробнее классификацию облаков см. в Атласе облаков (PDF).
T - Температура воздуха - температура, измеренная на высоте 2 м над землей.
Td - Температура точки росы - температура, при понижении до которой содержащийся в воздухе водяной пар достигнет насыщения.
f - Относительная влажность воздуха - влажноcть воздуха, измеренная на высоте 2 м над землей.
Te - Эффективная температура - температура, которую ощущает одетый по сезону человек в тени. Характеристика душности погоды. При расчете учитывается влияние влажности воздуха и скорости ветра на теплоощущения человека.
Tes - Эффективная температура на солнце - температура, которую ощущает человек, с поправкой на солнечный нагрев. Характеристика знойности погоды. Зависит от высоты солнца над горизонтом, облачности и скорости ветра. Ночью, в пасмурную погоду, а также при ветре 12 м/с и более поправка равна нулю.
P - Атмосферное давление - приведенное к уровню моря атмосферное давление.
Po - Атмосферное давление - измеренное на уровне метеостанции атмосферное давление.
Tmin - Минимальная температура - минимум температуры воздуха на высоте 2 м над землей.
Tmax - Максимальная температура - максимум температуры воздуха на высоте 2 м над землей.
R - Количество осадков - Количество выпавших осадков за период времени, мм. При наведении курсора мыши на число - период времени, за который выпало указанное количество осадков.
R24 - Количество осадков - Количество выпавших осадков за 24 часа, мм.
S - Снежный покров - Высота снежного покрова, см. При наведении курсора мыши на число - состояние снежного покрова и степень покрытия местности в баллах.